| time (UTC) | temp F | wind direction | speed MPH | gust MPH | rain 1hr in | rain 24hr in | rain mn in | humidity % | barometer mb |
| 20260506233429 | 0 | 0.0 | 1.0 | 0.00 | 0.00 | 0.00 | 1002.7 | ||
| 20260506232400 | 0 | 0.0 | 0.0 | 0.00 | 0.00 | 0.00 | 1002.8 | ||
| 20260506230406 | 0 | 0.0 | 0.0 | 0.00 | 0.00 | 0.00 | 1002.8 | ||
| 20260506224822 | 0 | 0.0 | 1.0 | 0.00 | 0.00 | 0.00 | 1003.0 | ||
| 20260506223754 | 0 | 0.0 | 0.0 | 0.00 | 0.00 | 0.00 | 1002.9 | ||
| 20260506222623 | 0 | 0.0 | 1.0 | 0.00 | 0.00 | 0.00 | 1002.8 | ||
| 20260506221349 | 0 | 0.0 | 0.0 | 0.00 | 0.00 | 0.00 | 1002.8 | ||
| 20260506220217 | 0 | 0.0 | 1.0 | 0.00 | 0.00 | 0.00 | 1002.7 | ||
| 20260506215146 | 0 | 0.0 | 1.0 | 0.00 | 0.00 | 0.00 | 1002.7 | ||
| 20260506213604 | 0 | 0.0 | 2.0 | 0.00 | 0.00 | 0.00 | 1002.6 | ||
| 20260506212535 | 0 | 1.0 | 3.0 | 0.00 | 0.00 | 0.00 | 1002.7 | ||
| 20260506211506 | 0 | 0.0 | 1.0 | 0.00 | 0.00 | 0.00 | 1002.8 | ||
| 20260506210437 | 0 | 0.0 | 1.0 | 0.00 | 0.00 | 0.00 | 1002.7 | ||
| 20260506205313 | 0 | 0.0 | 1.0 | 0.00 | 0.00 | 0.00 | 1002.7 | ||
| 20260506204241 | 0 | 1.0 | 4.0 | 0.00 | 0.00 | 0.00 | 1002.6 | ||
| 20260506203210 | 0 | 2.0 | 4.0 | 0.00 | 0.00 | 0.00 | 1002.5 | ||
| 20260506202139 | 0 | 2.0 | 8.0 | 0.00 | 0.00 | 0.00 | 1002.4 | ||
| 20260506201110 | 0 | 4.0 | 11.0 | 0.00 | 0.00 | 0.00 | 1002.4 | ||
| 20260506200039 | 0 | 4.0 | 11.0 | 0.00 | 0.00 | 0.00 | 1002.1 | ||
| 20260506195008 | 0 | 3.0 | 9.0 | 0.00 | 0.00 | 0.00 | 1002.2 | ||
| 20260506193936 | 0 | 2.0 | 12.0 | 0.00 | 0.00 | 0.00 | 1002.1 | ||
| 20260506192902 | 0 | 4.0 | 7.0 | 0.00 | 0.00 | 0.00 | 1001.9 | ||
| 20260506191831 | 0 | 4.0 | 6.0 | 0.00 | 0.00 | 0.00 | 1001.6 | ||
| 20260506190800 | 0 | 2.0 | 7.0 | 0.00 | 0.00 | 0.00 | 1001.4 | ||
| 20260506185730 | 0 | 3.0 | 10.0 | 0.00 | 0.00 | 0.00 | 1001.2 | ||
| 20260506184701 | 0 | 4.0 | 9.0 | 0.00 | 0.00 | 0.00 | 1001.1 | ||
| 20260506183632 | 0 | 3.0 | 8.0 | 0.00 | 0.00 | 0.00 | 1000.9 | ||
| 20260506182558 | 0 | 5.0 | 8.0 | 0.00 | 0.00 | 0.00 | 1000.9 | ||
| 20260506181529 | 0 | 4.0 | 9.0 | 0.00 | 0.00 | 0.00 | 1001.0 | ||
| 20260506180500 | 0 | 4.0 | 9.0 | 0.00 | 0.00 | 0.00 | 1000.9 | ||
| 20260506175430 | 0 | 4.0 | 10.0 | 0.00 | 0.00 | 0.00 | 1000.9 | ||
| 20260506174400 | 0 | 5.0 | 8.0 | 0.00 | 0.00 | 0.00 | 1000.8 | ||
| 20260506173330 | 0 | 7.0 | 10.0 | 0.00 | 0.00 | 0.00 | 1000.7 | ||
| 20260506172259 | 0 | 5.0 | 10.0 | 0.00 | 0.00 | 0.00 | 1000.7 | ||
| 20260506171229 | 0 | 6.0 | 11.0 | 0.00 | 0.00 | 0.00 | 1000.7 | ||
| 20260506170158 | 0 | 6.0 | 12.0 | 0.00 | 0.00 | 0.00 | 1000.7 | ||
| 20260506165129 | 0 | 6.0 | 11.0 | 0.00 | 0.00 | 0.00 | 1000.8 | ||
| 20260506164059 | 0 | 7.0 | 10.0 | 0.00 | 0.00 | 0.00 | 1000.8 | ||
| 20260506163029 | 0 | 4.0 | 13.0 | 0.00 | 0.00 | 0.00 | 1001.0 | ||
| 20260506161959 | 0 | 6.0 | 11.0 | 0.00 | 0.00 | 0.00 | 1000.9 | ||
| 20260506160930 | 0 | 8.0 | 13.0 | 0.00 | 0.00 | 0.00 | 1000.8 | ||
| 20260506155900 | 0 | 6.0 | 17.0 | 0.00 | 0.00 | 0.00 | 1000.8 | ||
| 20260506154832 | 0 | 9.0 | 13.0 | 0.00 | 0.00 | 0.00 | 1000.8 | ||
| 20260506153804 | 0 | 8.0 | 14.0 | 0.00 | 0.00 | 0.00 | 1000.7 | ||
| 20260506152734 | 0 | 9.0 | 16.0 | 0.00 | 0.00 | 0.00 | 1000.8 | ||
| 20260506151706 | 0 | 7.0 | 15.0 | 0.00 | 0.00 | 0.00 | 1000.9 | ||
| 20260506150637 | 0 | 7.0 | 13.0 | 0.00 | 0.00 | 0.00 | 1000.7 | ||
| 20260506145608 | 0 | 7.0 | 17.0 | 0.00 | 0.00 | 0.00 | 1000.8 | ||
| 20260506144539 | 0 | 7.0 | 14.0 | 0.00 | 0.00 | 0.00 | 1000.7 | ||
| 20260506143509 | 0 | 7.0 | 16.0 | 0.00 | 0.00 | 0.00 | 1000.9 | ||
| 20260506142439 | 0 | 5.0 | 13.0 | 0.00 | 0.00 | 0.00 | 1001.1 | ||
| 20260506141408 | 0 | 10.0 | 14.0 | 0.00 | 0.00 | 0.00 | 1001.0 | ||
| 20260506140339 | 0 | 9.0 | 15.0 | 0.00 | 0.00 | 0.00 | 1001.1 | ||
| 20260506135306 | 0 | 6.0 | 13.0 | 0.00 | 0.00 | 0.00 | 1001.2 | ||
| 20260506134231 | 0 | 6.0 | 14.0 | 0.00 | 0.00 | 0.00 | 1001.0 | ||
| 20260506133158 | 0 | 4.0 | 14.0 | 0.00 | 0.00 | 0.00 | 1001.3 | ||
| 20260506132126 | 0 | 9.0 | 13.0 | 0.00 | 0.00 | 0.00 | 1001.3 | ||
| 20260506131055 | 0 | 6.0 | 16.0 | 0.00 | 0.00 | 0.00 | 1001.4 | ||
| 20260506130025 | 0 | 5.0 | 14.0 | 0.00 | 0.00 | 0.00 | 1001.5 | ||
| 20260506124955 | 0 | 7.0 | 16.0 | 0.00 | 0.00 | 0.00 | 1001.5 | ||
| 20260506123924 | 0 | 7.0 | 21.0 | 0.00 | 0.00 | 0.00 | 1001.5 | ||
| 20260506122852 | 0 | 9.0 | 16.0 | 0.00 | 0.00 | 0.00 | 1001.6 | ||
| 20260506121823 | 0 | 8.0 | 17.0 | 0.00 | 0.00 | 0.00 | 1001.5 | ||
| 20260506120752 | 0 | 8.0 | 14.0 | 0.00 | 0.00 | 0.00 | 1001.4 | ||
| 20260506115722 | 0 | 8.0 | 13.0 | 0.00 | 0.00 | 0.00 | 1001.5 | ||
| 20260506114652 | 0 | 7.0 | 16.0 | 0.00 | 0.00 | 0.00 | 1001.5 | ||
| 20260506113622 | 0 | 9.0 | 14.0 | 0.00 | 0.00 | 0.00 | 1001.6 | ||
| 20260506112553 | 0 | 7.0 | 16.0 | 0.00 | 0.00 | 0.00 | 1001.5 | ||
| 20260506111523 | 0 | 6.0 | 16.0 | 0.00 | 0.00 | 0.00 | 1001.5 | ||
| 20260506110454 | 0 | 9.0 | 16.0 | 0.00 | 0.00 | 0.00 | 1001.6 | ||
| 20260506105425 | 0 | 12.0 | 18.0 | 0.00 | 0.00 | 0.00 | 1001.6 | ||
| 20260506104354 | 0 | 7.0 | 16.0 | 0.00 | 0.00 | 0.00 | 1001.6 | ||
| 20260506103315 | 0 | 8.0 | 16.0 | 0.00 | 0.00 | 0.00 | 1001.3 | ||
| 20260506102245 | 0 | 6.0 | 14.0 | 0.00 | 0.00 | 0.00 | 1001.3 | ||
| 20260506101216 | 0 | 8.0 | 14.0 | 0.00 | 0.00 | 0.00 | 1001.3 | ||
| 20260506100146 | 0 | 4.0 | 13.0 | 0.00 | 0.00 | 0.00 | 1001.4 | ||
| 20260506095117 | 0 | 7.0 | 12.0 | 0.00 | 0.00 | 0.00 | 1001.4 | ||
| 20260506094046 | 0 | 8.0 | 11.0 | 0.00 | 0.00 | 0.00 | 1001.3 | ||
| 20260506093015 | 0 | 7.0 | 9.0 | 0.00 | 0.00 | 0.00 | 1001.4 | ||
| 20260506091945 | 0 | 5.0 | 10.0 | 0.00 | 0.00 | 0.00 | 1001.3 | ||
| 20260506090915 | 0 | 5.0 | 9.0 | 0.00 | 0.00 | 0.00 | 1001.2 | ||
| 20260506085845 | 0 | 3.0 | 8.0 | 0.00 | 0.00 | 0.00 | 1001.1 | ||
| 20260506084816 | 0 | 3.0 | 9.0 | 0.00 | 0.00 | 0.00 | 1001.2 | ||
| 20260506083746 | 0 | 4.0 | 10.0 | 0.00 | 0.00 | 0.00 | 1001.0 | ||
| 20260506082718 | 0 | 3.0 | 10.0 | 0.00 | 0.00 | 0.00 | 1001.0 | ||
| 20260506081649 | 0 | 4.0 | 8.0 | 0.00 | 0.00 | 0.00 | 1001.0 | ||
| 20260506080619 | 0 | 4.0 | 9.0 | 0.00 | 0.00 | 0.00 | 1000.9 | ||
| 20260506073452 | 0 | 4.0 | 8.0 | 0.00 | 0.00 | 0.00 | 1000.8 | ||
| 20260506072423 | 0 | 3.0 | 5.0 | 0.00 | 0.00 | 0.00 | 1000.8 | ||
| 20260506071354 | 0 | 5.0 | 8.0 | 0.00 | 0.00 | 0.00 | 1000.7 | ||
| 20260506070325 | 0 | 2.0 | 6.0 | 0.00 | 0.00 | 0.00 | 1000.6 | ||
| 20260506061200 | 0 | 0.0 | 0.0 | 0.00 | 0.00 | 0.00 | 1000.3 | ||
| 20260506050704 | 0 | 0.0 | 1.0 | 0.00 | 0.00 | 0.00 | 1000.2 | ||
| 20260506044606 | 0 | 2.0 | 3.0 | 0.00 | 0.00 | 0.00 | 1000.2 | ||
| 20260506043538 | 0 | 0.0 | 2.0 | 0.00 | 0.00 | 0.00 | 1000.2 | ||
| 20260506042510 | 0 | 0.0 | 1.0 | 0.00 | 0.00 | 0.00 | 1000.5 | ||
| 20260506041442 | 0 | 1.0 | 2.0 | 0.00 | 0.00 | 0.00 | 1000.6 | ||
| 20260506040414 | 0 | 0.0 | 1.0 | 0.00 | 0.00 | 0.00 | 1000.9 | ||
| 20260506035345 | 0 | 0.0 | 2.0 | 0.00 | 0.00 | 0.00 | 1000.5 | ||
| 20260506034314 | 0 | 0.0 | 0.0 | 0.00 | 0.00 | 0.00 | 1000.4 | ||
| 20260506032930 | 0 | 0.0 | 0.0 | 0.00 | 0.00 | 0.00 | 1000.3 | ||
| 20260506030212 | 0 | 0.0 | 0.0 | 0.00 | 0.00 | 0.00 | 1000.5 | ||
| 20260506025143 | 0 | 0.0 | 0.0 | 0.00 | 0.00 | 0.00 | 1000.6 | ||
| 20260506022523 | 0 | 0.0 | 0.0 | 0.00 | 0.00 | 0.00 | 1001.0 | ||
| 20260506021455 | 0 | 0.0 | 0.0 | 0.00 | 0.00 | 0.00 | 1001.1 | ||
| 20260506020324 | 0 | 0.0 | 0.0 | 0.00 | 0.00 | 0.00 | 1001.2 | ||
| 20260506015254 | 0 | 0.0 | 1.0 | 0.00 | 0.00 | 0.00 | 1001.2 | ||
| 20260506014226 | 0 | 0.0 | 0.0 | 0.00 | 0.00 | 0.00 | 1001.2 | ||
| 20260506012741 | 0 | 0.0 | 0.0 | 0.00 | 0.00 | 0.00 | 1001.4 | ||
| 20260506011609 | 0 | 0.0 | 1.0 | 0.00 | 0.00 | 0.00 | 1001.4 | ||
| 20260506010539 | 0 | 0.0 | 3.0 | 0.00 | 0.00 | 0.00 | 1001.5 | ||
| 20260506005511 | 0 | 0.0 | 4.0 | 0.00 | 0.00 | 0.00 | 1001.4 | ||
| 20260506004441 | 0 | 1.0 | 3.0 | 0.00 | 0.00 | 0.00 | 1001.7 | ||
| 20260506003412 | 0 | 2.0 | 2.0 | 0.00 | 0.00 | 0.00 | 1002.0 | ||
| 20260506002336 | 0 | 0.0 | 1.0 | 0.00 | 0.00 | 0.00 | 1001.9 | ||
| 20260506001306 | 0 | 0.0 | 2.0 | 0.03 | 0.00 | 0.00 | 1001.9 | ||
| 20260506000237 | 0 | 2.0 | 4.0 | 0.03 | 0.00 | 0.00 | 1001.9 | ||
| 20260505235208 | 0 | 0.0 | 1.0 | 0.03 | 0.00 | 0.00 | 1002.8 | ||
| 20260505234140 | 0 | 2.0 | 3.0 | 0.03 | 0.00 | 0.00 | 1002.9 |